Thunderstorms From: 25-05-2018 23:09 Until: 26-05-2018 15:00 warning for: Thunderstorms Level: Yellow info button

Although rather usual in this region, locally or potentially dangerous phenomena are expected. (such as local winds, summer thunderstorms, rising streams or high waves) Be aware and pay attention to the latest weather updates, especially if you carry out activities exposed to weather or close to a stream or shoreline. 


Meteo18 Weather Cam more information Meteo18 Weather Cam


warning for Thunderstorms more information blitzortung!


Rain radar more information rain snow radar


Visit our other weather sites:

Template documentation
and downloads

And another site



Weather Underground History page Text

Daily Summary for January 18, 2018 Units:  Metric    English   Both
« Previous Day
Next Day »
Daily Weekly Monthly Yearly Custom
  High: Low: Average:
Temperature: -17.8 °C -14.8 °C -13.2 °C
Dew Point: -17.8 °C -15.8 °C -13.7 °C
Humidity: Humidity % 85 % 93 %
Wind Speed: 0 km/h 5.1 km/h 31.1 km/h
Wind Gust: 0 km/h - -
Wind:- - WSW
Pressure: 0 hPa 34198.6 hPa -
Precipitation: 238.76 mm    
Historical Graphs
 
 
Tabular Data for January 18, 2018
Time Temperature Dew Point Pressure Wind Wind Speed Wind Gust Humidity Rainfall Rate (Hourly)
-17.8 °C -17.8 °C 0 hPa Calm     Humidity % 0 mm
00:01 -14.8 °C -15.8 °C 34510.1 hPa WSW 15.6 km/h 28.5 km/h 88 % 0 mm
00:07 -14.8 °C -15.8 °C 34510.1 hPa SW 31.4 km/h 33.6 km/h 88 % 0 mm
00:13 -14.8 °C -15.8 °C 34496.6 hPa SSW 33.6 km/h 41.4 km/h 88 % 0 mm
00:19 -14.8 °C -15.8 °C 34496.6 hPa WSW 17.9 km/h 33.6 km/h 88 % 0 mm
00:25 -14.8 °C -15.8 °C 34486.4 hPa SW 20.9 km/h 46.7 km/h 88 % 0 mm
00:31 -14.8 °C -15.8 °C 34486.4 hPa SW 15.6 km/h 31.1 km/h 88 % 0 mm
00:37 -14.7 °C -15.7 °C 34486.4 hPa SW 23 km/h 41.4 km/h 89 % 0 mm
00:43 -14.7 °C -15.7 °C 34496.6 hPa WSW 17.9 km/h 23.3 km/h 88 % 0 mm
00:49 -14.7 °C -15.7 °C 34496.6 hPa SW 15.6 km/h 38.8 km/h 88 % 0 mm
00:55 -14.7 °C -15.6 °C 34486.4 hPa WSW 12.7 km/h 31.1 km/h 89 % 0 mm
01:01 -14.7 °C -15.6 °C 34486.4 hPa WSW 23 km/h 38.8 km/h 89 % 0 mm
01:07 -14.7 °C -15.6 °C 34476.3 hPa WSW 20.9 km/h 23.3 km/h 89 % 0 mm
01:13 -14.7 °C -15.6 °C 34476.3 hPa SW 5.1 km/h 23.3 km/h 89 % 0 mm
01:19 -14.7 °C -15.7 °C 34462.7 hPa SW 15.6 km/h 20.8 km/h 89 % 0 mm
01:25 -14.8 °C -15.6 °C 34462.7 hPa SW 23 km/h 28.5 km/h 90 % 0 mm
01:31 -14.8 °C -15.6 °C 34462.7 hPa SW 23 km/h 23.3 km/h 90 % 0 mm
01:37 -14.7 °C -15.6 °C 34462.7 hPa SW 20.9 km/h 31.1 km/h 90 % 0 mm
01:43 -14.7 °C -15.5 °C 34462.7 hPa SW 15.6 km/h 31.1 km/h 90 % 0 mm
01:49 -14.7 °C -15.5 °C 34452.6 hPa SW 17.9 km/h 33.6 km/h 90 % 0 mm
01:55 -14.7 °C -15.5 °C 34442.4 hPa SW 26.2 km/h 28.5 km/h 90 % 0 mm
02:01 -14.7 °C -15.5 °C 34428.8 hPa SW 26.2 km/h 36.2 km/h 90 % 0 mm
02:07 -14.7 °C -15.4 °C 34428.8 hPa SSW 26.2 km/h 41.4 km/h 91 % 0 mm
02:13 -14.6 °C -15.4 °C 34428.8 hPa SW 23 km/h 41.4 km/h 91 % 0 mm
02:19 -14.6 °C -15.4 °C 34428.8 hPa SW 31.4 km/h 38.8 km/h 91 % 0 mm
02:25 -14.6 °C -15.4 °C 34428.8 hPa SW 23 km/h 33.6 km/h 91 % 0 mm
02:31 -14.6 °C -15.3 °C 34428.8 hPa SSW 15.6 km/h 28.5 km/h 92 % 0 mm
02:37 -14.6 °C -15.3 °C 34418.7 hPa SSW 12.7 km/h 46.7 km/h 92 % 0 mm
02:43 -14.6 °C -15.2 °C 34418.7 hPa SW 15.6 km/h 41.4 km/h 92 % 0 mm
02:49 -14.6 °C -15.2 °C 34405.1 hPa SW 36.5 km/h 44.1 km/h 92 % 0 mm
02:55 -14.6 °C -15.1 °C 34405.1 hPa South 28.5 km/h 57 km/h 93 % 0 mm
03:01 -14.5 °C -15.1 °C 34405.1 hPa SW 31.4 km/h 46.7 km/h 93 % 0 mm
03:07 -14.5 °C -15.1 °C 34395 hPa SW 44.1 km/h 49.2 km/h 93 % 0 mm
03:13 -14.5 °C -15.1 °C 34395 hPa WSW 28.5 km/h 49.2 km/h 93 % 0 mm
03:19 -14.5 °C -15 °C 34384.8 hPa SW 28.5 km/h 44.1 km/h 94 % 0 mm
03:25 -14.5 °C -15 °C 34395 hPa SW 49.2 km/h 51.8 km/h 94 % 0 mm
03:31 -14.4 °C -14.9 °C 34384.8 hPa SW 26.2 km/h 38.8 km/h 94 % 0 mm
03:37 -14.4 °C -14.9 °C 34395 hPa WSW 15.6 km/h 41.4 km/h 94 % 0 mm
03:43 -14.4 °C -14.9 °C 34384.8 hPa SW 36.5 km/h 49.2 km/h 94 % 0 mm
03:49 -14.4 °C -14.9 °C 34384.8 hPa SW 28.5 km/h 38.8 km/h 94 % 0 mm
03:55 -14.4 °C -14.9 °C 34371.3 hPa SSW 15.6 km/h 54.4 km/h 94 % 7.62 mm
04:01 -14.4 °C -14.9 °C 34371.3 hPa SSW 26.2 km/h 41.4 km/h 94 % 7.62 mm
04:07 -14.3 °C -14.7 °C 34361.1 hPa SW 33.6 km/h 46.7 km/h 95 % 7.62 mm
04:13 -14.3 °C -14.7 °C 34361.1 hPa SW 33.6 km/h 44.1 km/h 95 % 7.62 mm
04:19 -14.3 °C -14.7 °C 34361.1 hPa SSW 26.2 km/h 38.8 km/h 95 % 7.62 mm
04:25 -14.3 °C -14.7 °C 34361.1 hPa SW 28.5 km/h 54.4 km/h 95 % 7.62 mm
04:31 -14.3 °C -14.7 °C 34347.6 hPa SW 33.6 km/h 44.1 km/h 95 % 7.62 mm
04:37 -14.3 °C -14.7 °C 34347.6 hPa SSW 23 km/h 46.7 km/h 95 % 12.7 mm
04:43 -14.3 °C -14.7 °C 34347.6 hPa WSW 49.2 km/h 57 km/h 95 % 12.7 mm
04:49 -14.2 °C -14.6 °C 34347.6 hPa SW 28.5 km/h 51.8 km/h 95 % 12.7 mm
04:55 -14.2 °C -14.6 °C 34337.4 hPa SW 17.9 km/h 46.7 km/h 95 % 7.62 mm
05:01 -14.2 °C -14.6 °C 34347.6 hPa SSW 10.3 km/h 46.7 km/h 95 % 7.62 mm
05:07 -14.2 °C -14.6 °C 34337.4 hPa SW 36.5 km/h 41.4 km/h 95 % 7.62 mm
05:13 -14.2 °C -14.6 °C 34337.4 hPa SW 31.4 km/h 49.2 km/h 95 % 7.62 mm
05:19 -14.2 °C -14.6 °C 34337.4 hPa SW 46.3 km/h 51.8 km/h 95 % 12.7 mm
05:25 -14.2 °C -14.6 °C 34327.3 hPa WSW 17.9 km/h 46.7 km/h 95 % 12.7 mm
05:31 -14.2 °C -14.6 °C 34327.3 hPa SW 33.6 km/h 38.8 km/h 95 % 12.7 mm
05:37 -14.2 °C -14.5 °C 34327.3 hPa WSW 26.2 km/h 44.1 km/h 96 % 7.62 mm
05:43 -14.1 °C -14.5 °C 34327.3 hPa SW 31.4 km/h 51.8 km/h 95 % 7.62 mm
05:49 -14.1 °C -14.4 °C 34327.3 hPa WSW 28.5 km/h 57 km/h 95 % 7.62 mm
05:55 -14 °C -14.4 °C 34327.3 hPa SSW 23 km/h 46.7 km/h 95 % 12.7 mm
06:01 -13.9 °C -14.3 °C 34327.3 hPa WSW 44.1 km/h 62.1 km/h 95 % 12.7 mm
06:07 -13.9 °C -14.4 °C 34313.7 hPa WSW 28.5 km/h 59.5 km/h 94 % 12.7 mm
06:13 -13.8 °C -14.3 °C 34313.7 hPa WSW 49.2 km/h 72.6 km/h 94 % 12.7 mm
06:19 -13.8 °C -14.3 °C 34313.7 hPa SW 33.6 km/h 57 km/h 94 % 7.62 mm
06:25 -13.8 °C -14.2 °C 34303.6 hPa WSW 36.5 km/h 67.3 km/h 95 % 7.62 mm
06:31 -13.8 °C -14.2 °C 34303.6 hPa WSW 28.5 km/h 46.7 km/h 95 % 7.62 mm
06:37 -13.8 °C -14.2 °C 34303.6 hPa SSW 36.5 km/h 62.1 km/h 95 % 7.62 mm
06:43 -13.8 °C -14.2 °C 34313.7 hPa WSW 26.2 km/h 49.2 km/h 95 % 7.62 mm
06:49 -13.8 °C -14.2 °C 34313.7 hPa SSW 46.3 km/h 49.2 km/h 95 % 7.62 mm
06:55 -13.8 °C -14.2 °C 34303.6 hPa SW 49.2 km/h 51.8 km/h 95 % 0 mm
07:01 -13.8 °C -14.2 °C 34303.6 hPa SW 33.6 km/h 46.7 km/h 95 % 0 mm
07:08 -13.8 °C -14.2 °C 34303.6 hPa SW 20.9 km/h 77.7 km/h 95 % 0 mm
07:14 -13.7 °C -14.1 °C 34303.6 hPa WSW 23 km/h 51.8 km/h 95 % 0 mm
07:20 -13.7 °C -14.1 °C 34303.6 hPa SW 44.1 km/h 64.7 km/h 95 % 0 mm
07:26 -13.7 °C -14.1 °C 34303.6 hPa WSW 56.6 km/h 69.8 km/h 95 % 0 mm
07:32 -13.7 °C -14.1 °C 34293.4 hPa SW 20.9 km/h 75.2 km/h 95 % 7.62 mm
07:38 -13.7 °C -14.1 °C 34293.4 hPa West 38.8 km/h 64.7 km/h 95 % 7.62 mm
07:44 -13.7 °C -14.1 °C 34293.4 hPa WSW 46.3 km/h 80.3 km/h 95 % 7.62 mm
07:50 -13.6 °C -14 °C 34279.9 hPa SW 36.5 km/h 67.3 km/h 95 % 12.7 mm
07:56 -13.6 °C -13.9 °C 34293.4 hPa West 44.1 km/h 59.5 km/h 95 % 12.7 mm
08:02 -13.6 °C -13.9 °C 34293.4 hPa SW 26.2 km/h 82.9 km/h 95 % 12.7 mm
08:08 -13.6 °C -13.9 °C 34293.4 hPa SW 44.1 km/h 59.5 km/h 95 % 12.7 mm
08:14 -13.6 °C -13.9 °C 34293.4 hPa SW 44.1 km/h 51.8 km/h 95 % 20.32 mm
08:20 -13.5 °C -13.9 °C 34293.4 hPa WSW 38.8 km/h 72.6 km/h 95 % 20.32 mm
08:26 -13.5 °C -13.9 °C 34293.4 hPa WNW 33.6 km/h 75.2 km/h 95 % 20.32 mm
08:32 -13.5 °C -13.9 °C 34293.4 hPa WSW 33.6 km/h 46.7 km/h 95 % 20.32 mm
08:38 -13.5 °C -13.9 °C 34293.4 hPa WSW 41.7 km/h 57 km/h 95 % 20.32 mm
08:44 -13.5 °C -13.8 °C 34293.4 hPa SW 36.5 km/h 69.8 km/h 96 % 20.32 mm
08:50 -13.5 °C -13.8 °C 34293.4 hPa South 26.2 km/h 69.8 km/h 96 % 12.7 mm
08:56 -13.5 °C -13.8 °C 34293.4 hPa WSW 41.7 km/h 62.1 km/h 96 % 20.32 mm
09:02 -13.4 °C -13.8 °C 34293.4 hPa SSW 23 km/h 49.2 km/h 96 % 25.4 mm
09:08 -13.4 °C -13.8 °C 34293.4 hPa SW 31.4 km/h 59.5 km/h 96 % 25.4 mm
09:14 -13.4 °C -13.8 °C 34293.4 hPa SSW 46.3 km/h 62.1 km/h 96 % 25.4 mm
09:20 -13.4 °C -13.8 °C 34293.4 hPa WSW 49.2 km/h 62.1 km/h 95 % 25.4 mm
09:26 -13.4 °C -13.7 °C 34303.6 hPa WSW 41.7 km/h 51.8 km/h 96 % 25.4 mm
09:32 -13.4 °C -13.7 °C 34303.6 hPa WSW 26.2 km/h 41.4 km/h 96 % 25.4 mm
09:38 -13.4 °C -13.7 °C 34303.6 hPa SW 31.4 km/h 51.8 km/h 96 % 25.4 mm
09:44 -13.3 °C -13.7 °C 34303.6 hPa WSW 33.6 km/h 41.4 km/h 96 % 20.32 mm
09:50 -13.3 °C -13.6 °C 34303.6 hPa WSW 51.5 km/h 51.8 km/h 96 % 20.32 mm
09:56 -13.3 °C -13.6 °C 34303.6 hPa West 38.8 km/h 46.7 km/h 96 % 12.7 mm
10:02 -13.3 °C -13.6 °C 34303.6 hPa SW 44.1 km/h 51.8 km/h 96 % 12.7 mm
10:08 -13.3 °C -13.6 °C 34303.6 hPa SW 17.9 km/h 59.5 km/h 96 % 12.7 mm
10:14 -13.2 °C -13.6 °C 34303.6 hPa WSW 28.5 km/h 67.3 km/h 96 % 12.7 mm
10:20 -13.2 °C -13.6 °C 34303.6 hPa WSW 26.2 km/h 59.5 km/h 96 % 12.7 mm
10:26 -13.2 °C -13.6 °C 34303.6 hPa WSW 20.9 km/h 41.4 km/h 96 % 12.7 mm
10:32 -13.2 °C -13.5 °C 34303.6 hPa West 26.2 km/h 46.7 km/h 96 % 7.62 mm
10:38 -13.2 °C -13.5 °C 34303.6 hPa WSW 28.5 km/h 69.8 km/h 96 % 12.7 mm
10:44 -13.1 °C -13.4 °C 34303.6 hPa SW 41.7 km/h 41.7 km/h 96 % 12.7 mm
10:50 -13.1 °C -13.4 °C 34303.6 hPa West 10.3 km/h 49.2 km/h 96 % 12.7 mm
10:56 -13.1 °C -13.4 °C 34303.6 hPa WSW 56.6 km/h 57 km/h 96 % 12.7 mm
11:02 -13.1 °C -13.4 °C 34303.6 hPa SW 10.3 km/h 54.4 km/h 96 % 12.7 mm
11:08 -13 °C -13.3 °C 34303.6 hPa West 33.6 km/h 51.8 km/h 96 % 12.7 mm
11:14 -13 °C -13.3 °C 34303.6 hPa SW 36.5 km/h 54.4 km/h 96 % 12.7 mm
11:20 -12.9 °C -13.3 °C 34313.7 hPa SW 17.9 km/h 49.2 km/h 96 % 12.7 mm
11:26 -12.9 °C -13.3 °C 34303.6 hPa SSW 36.5 km/h 62.1 km/h 96 % 12.7 mm
11:32 -12.9 °C -13.3 °C 34303.6 hPa West 31.4 km/h 64.7 km/h 96 % 20.32 mm
11:38 -12.9 °C -13.3 °C 34303.6 hPa WSW 23 km/h 46.7 km/h 96 % 20.32 mm
11:44 -12.9 °C -13.2 °C 34303.6 hPa WSW 36.5 km/h 46.7 km/h 96 % 20.32 mm
11:50 -12.9 °C -13.3 °C 34303.6 hPa West 28.5 km/h 44.1 km/h 96 % 33.02 mm
11:56 -12.9 °C -13.2 °C 34293.4 hPa WSW 54.4 km/h 69.8 km/h 96 % 33.02 mm
12:02 -12.9 °C -13.2 °C 34293.4 hPa SW 38.8 km/h 54.4 km/h 96 % 33.02 mm
12:08 -12.9 °C -13.2 °C 34293.4 hPa SW 26.2 km/h 62.1 km/h 96 % 38.1 mm
12:14 -12.9 °C -13.2 °C 34293.4 hPa WSW 51.5 km/h 51.8 km/h 96 % 38.1 mm
12:20 -12.9 °C -13.2 °C 34293.4 hPa WSW 44.1 km/h 51.8 km/h 96 % 38.1 mm
12:26 -12.9 °C -13.2 °C 34279.9 hPa WSW 20.9 km/h 44.1 km/h 96 % 38.1 mm
12:32 -12.8 °C -13.2 °C 34279.9 hPa WNW 36.5 km/h 41.4 km/h 96 % 38.1 mm
12:38 -12.8 °C -13.2 °C 34279.9 hPa WSW 38.8 km/h 59.5 km/h 96 % 38.1 mm
12:44 -12.8 °C -13.2 °C 34279.9 hPa SW 26.2 km/h 51.8 km/h 96 % 38.1 mm
12:50 -12.8 °C -13.1 °C 34269.7 hPa SW 36.5 km/h 46.7 km/h 96 % 25.4 mm
12:56 -12.7 °C -13.1 °C 34269.7 hPa WSW 31.4 km/h 51.8 km/h 96 % 33.02 mm
13:02 -12.7 °C -13.1 °C 34269.7 hPa WSW 36.5 km/h 59.5 km/h 96 % 25.4 mm
13:08 -12.7 °C -13.1 °C 34256.2 hPa SSW 23 km/h 41.4 km/h 96 % 25.4 mm
13:14 -12.7 °C -13 °C 34256.2 hPa West 36.5 km/h 54.4 km/h 96 % 25.4 mm
13:20 -12.7 °C -13 °C 34256.2 hPa SW 49.2 km/h 62.1 km/h 96 % 25.4 mm
13:26 -12.6 °C -12.9 °C 34256.2 hPa WSW 23 km/h 69.8 km/h 96 % 25.4 mm
13:32 -12.6 °C -12.9 °C 34246 hPa WSW 46.3 km/h 59.5 km/h 96 % 20.32 mm
13:38 -12.6 °C -13.1 °C 34246 hPa WSW 44.1 km/h 64.7 km/h 95 % 20.32 mm
13:44 -12.6 °C -13 °C 34256.2 hPa WNW 33.6 km/h 72.6 km/h 95 % 20.32 mm
13:50 -12.6 °C -13 °C 34256.2 hPa WSW 33.6 km/h 67.3 km/h 95 % 20.32 mm
13:56 -12.6 °C -12.9 °C 34246 hPa WSW 38.8 km/h 57 km/h 96 % 12.7 mm
14:02 -12.6 °C -13 °C 34246 hPa West 56.6 km/h 77.7 km/h 95 % 25.4 mm
14:08 -12.6 °C -13 °C 34246 hPa WSW 44.1 km/h 57 km/h 95 % 20.32 mm
14:14 -12.5 °C -12.9 °C 34235.8 hPa SW 36.5 km/h 41.4 km/h 95 % 25.4 mm
14:20 -12.5 °C -12.9 °C 34222.3 hPa West 46.3 km/h 72.6 km/h 95 % 20.32 mm
14:26 -12.4 °C -12.9 °C 34222.3 hPa SW 33.6 km/h 64.7 km/h 95 % 20.32 mm
14:32 -12.4 °C -12.9 °C 34222.3 hPa SW 41.7 km/h 49.2 km/h 95 % 20.32 mm
14:38 -12.4 °C -12.8 °C 34222.3 hPa West 15.6 km/h 64.7 km/h 95 % 12.7 mm
14:44 -12.4 °C -12.8 °C 34222.3 hPa West 31.4 km/h 59.5 km/h 95 % 20.32 mm
14:50 -12.4 °C -12.8 °C 34222.3 hPa WSW 33.6 km/h 54.4 km/h 95 % 20.32 mm
14:56 -12.3 °C -12.8 °C 34222.3 hPa West 15.6 km/h 49.2 km/h 95 % 20.32 mm
15:02 -12.3 °C -12.8 °C 34222.3 hPa West 28.5 km/h 49.2 km/h 95 % 12.7 mm
15:08 -12.3 °C -12.8 °C 34222.3 hPa West 20.9 km/h 57 km/h 95 % 12.7 mm
15:14 -12.3 °C -12.8 °C 34212.1 hPa WSW 23 km/h 49.2 km/h 95 % 7.62 mm
15:20 -12.3 °C -12.8 °C 34222.3 hPa West 20.9 km/h 46.7 km/h 95 % 12.7 mm
15:26 -12.3 °C -12.7 °C 34222.3 hPa WSW 28.5 km/h 49.2 km/h 96 % 12.7 mm
15:32 -12.3 °C -12.7 °C 34222.3 hPa WSW 23 km/h 57 km/h 96 % 12.7 mm
15:38 -12.3 °C -12.7 °C 34212.1 hPa WSW 36.5 km/h 51.8 km/h 96 % 12.7 mm
15:44 -12.3 °C -12.7 °C 34212.1 hPa WSW 23 km/h 64.7 km/h 96 % 7.62 mm
15:50 -12.3 °C -12.7 °C 34212.1 hPa SW 36.5 km/h 72.6 km/h 96 % 7.62 mm
15:56 -12.3 °C -12.7 °C 34212.1 hPa West 26.2 km/h 57 km/h 96 % 12.7 mm
16:02 -12.3 °C -12.7 °C 34212.1 hPa WSW 26.2 km/h 36.2 km/h 96 % 12.7 mm
16:08 -12.3 °C -12.6 °C 34198.6 hPa WSW 41.7 km/h 62.1 km/h 96 % 12.7 mm
16:14 -12.3 °C -12.6 °C 34212.1 hPa SW 54.4 km/h 64.7 km/h 96 % 12.7 mm
16:20 -12.3 °C -12.6 °C 34212.1 hPa WSW 23 km/h 49.2 km/h 96 % 12.7 mm
16:26 -12.3 °C -12.6 °C 34198.6 hPa WSW 49.2 km/h 59.5 km/h 96 % 12.7 mm
16:32 -12.3 °C -12.6 °C 34212.1 hPa West 23 km/h 54.4 km/h 96 % 12.7 mm
16:38 -12.3 °C -12.6 °C 34212.1 hPa SW 26.2 km/h 51.8 km/h 96 % 12.7 mm
16:44 -12.3 °C -12.6 °C 34212.1 hPa WSW 26.2 km/h 59.5 km/h 96 % 12.7 mm
16:51 -12.3 °C -12.6 °C 34212.1 hPa WSW 31.4 km/h 49.2 km/h 96 % 12.7 mm
16:56 -12.2 °C -12.6 °C 34212.1 hPa WSW 33.6 km/h 69.8 km/h 96 % 12.7 mm
17:02 -12.2 °C -12.5 °C 34212.1 hPa WSW 28.5 km/h 54.4 km/h 96 % 12.7 mm
17:08 -12.2 °C -12.5 °C 34212.1 hPa WSW 38.8 km/h 57 km/h 96 % 12.7 mm
17:14 -12.2 °C -12.5 °C 34212.1 hPa WSW 36.5 km/h 54.4 km/h 96 % 12.7 mm
17:21 -12.2 °C -12.5 °C 34212.1 hPa SW 28.5 km/h 62.1 km/h 96 % 7.62 mm
17:27 -12.2 °C -12.5 °C 34212.1 hPa WSW 41.7 km/h 62.1 km/h 96 % 7.62 mm
17:33 -12.1 °C -12.4 °C 34212.1 hPa West 26.2 km/h 38.8 km/h 96 % 12.7 mm
17:39 -12.1 °C -12.4 °C 34198.6 hPa SW 28.5 km/h 41.4 km/h 96 % 12.7 mm
17:45 -12.1 °C -12.4 °C 34198.6 hPa WSW 33.6 km/h 49.2 km/h 96 % 12.7 mm
17:51 -12.1 °C -12.4 °C 34198.6 hPa West 31.4 km/h 54.4 km/h 96 % 12.7 mm
17:57 -12.1 °C -12.4 °C 34198.6 hPa WSW 26.2 km/h 46.7 km/h 96 % 7.62 mm
18:03 -12.1 °C -12.4 °C 34198.6 hPa WSW 26.2 km/h 38.8 km/h 96 % 12.7 mm
18:09 -12.1 °C -12.4 °C 34198.6 hPa WSW 49.2 km/h 54.4 km/h 96 % 12.7 mm
18:15 -12.1 °C -12.4 °C 34212.1 hPa WSW 20.9 km/h 36.2 km/h 96 % 12.7 mm
18:21 -12.1 °C -12.4 °C 34198.6 hPa WSW 46.3 km/h 51.8 km/h 96 % 12.7 mm
18:27 -12.1 °C -12.4 °C 34198.6 hPa SW 31.4 km/h 44.1 km/h 96 % 12.7 mm
18:33 -12.1 °C -12.4 °C 34198.6 hPa WSW 33.6 km/h 36.2 km/h 96 % 12.7 mm
18:39 -12.1 °C -12.4 °C 34198.6 hPa West 17.9 km/h 51.8 km/h 96 % 12.7 mm
18:45 -12.1 °C -12.4 °C 34198.6 hPa SW 36.5 km/h 51.8 km/h 96 % 12.7 mm
18:51 -12.1 °C -12.3 °C 34198.6 hPa SW 41.7 km/h 64.7 km/h 97 % 12.7 mm
18:57 -12.1 °C -12.4 °C 34198.6 hPa WSW 33.6 km/h 49.2 km/h 96 % 12.7 mm
19:03 -12.1 °C -12.3 °C 34198.6 hPa SW 44.1 km/h 54.4 km/h 97 % 12.7 mm
19:09 -12.1 °C -12.3 °C 34198.6 hPa WSW 51.5 km/h 51.8 km/h 97 % 12.7 mm
19:15 -12.1 °C -12.3 °C 34198.6 hPa WSW 41.7 km/h 64.7 km/h 97 % 12.7 mm
19:21 -12.1 °C -12.3 °C 34198.6 hPa WSW 23 km/h 44.1 km/h 97 % 12.7 mm
19:27 -12.1 °C -12.3 °C 34198.6 hPa WSW 31.4 km/h 49.2 km/h 97 % 12.7 mm
19:33 -12.1 °C -12.3 °C 34198.6 hPa West 44.1 km/h 51.8 km/h 97 % 12.7 mm
19:39 -12.1 °C -12.3 °C 34198.6 hPa West 36.5 km/h 44.1 km/h 97 % 12.7 mm
19:45 -12 °C -12.3 °C 34212.1 hPa West 33.6 km/h 59.5 km/h 97 % 12.7 mm
19:51 -12 °C -12.3 °C 34212.1 hPa SW 46.3 km/h 62.1 km/h 96 % 12.7 mm
19:57 -11.9 °C -12.2 °C 34212.1 hPa WSW 31.4 km/h 57 km/h 96 % 12.7 mm
20:03 -11.9 °C -12.3 °C 34212.1 hPa SW 44.1 km/h 54.4 km/h 95 % 12.7 mm
20:09 -11.9 °C -12.4 °C 34212.1 hPa WSW 44.1 km/h 62.1 km/h 94 % 12.7 mm
20:15 -11.9 °C -12.5 °C 34212.1 hPa WSW 36.5 km/h 49.2 km/h 93 % 12.7 mm
20:21 -11.9 °C -12.5 °C 34212.1 hPa WSW 28.5 km/h 51.8 km/h 93 % 12.7 mm
20:27 -11.8 °C -12.5 °C 34212.1 hPa WSW 23 km/h 72.6 km/h 92 % 12.7 mm
20:33 -11.8 °C -12.6 °C 34212.1 hPa West 31.4 km/h 54.4 km/h 91 % 12.7 mm
20:39 -11.8 °C -12.6 °C 34222.3 hPa West 33.6 km/h 57 km/h 91 % 7.62 mm
20:45 -11.8 °C -12.6 °C 34222.3 hPa West 17.9 km/h 49.2 km/h 91 % 7.62 mm
20:51 -11.8 °C -12.7 °C 34222.3 hPa West 46.3 km/h 57 km/h 90 % 7.62 mm
20:57 -11.8 °C -12.7 °C 34222.3 hPa WSW 31.4 km/h 49.2 km/h 90 % 7.62 mm
21:03 -11.9 °C -12.8 °C 34222.3 hPa West 33.6 km/h 57 km/h 90 % 7.62 mm
21:09 -11.9 °C -12.9 °C 34235.8 hPa WSW 36.5 km/h 59.5 km/h 89 % 0 mm
21:15 -12 °C -13.1 °C 34235.8 hPa West 36.5 km/h 59.5 km/h 88 % 0 mm
21:21 -12 °C -13.2 °C 34246 hPa West 46.3 km/h 54.4 km/h 87 % 0 mm
21:27 -12.1 °C -13.2 °C 34246 hPa West 17.9 km/h 54.4 km/h 87 % 0 mm
21:33 -12.1 °C -13.3 °C 34246 hPa West 15.6 km/h 33.6 km/h 87 % 0 mm
21:39 -12.1 °C -13.3 °C 34256.2 hPa WSW 44.1 km/h 49.2 km/h 87 % 0 mm
21:45 -12.2 °C -13.3 °C 34256.2 hPa West 20.9 km/h 33.6 km/h 87 % 0 mm
21:51 -12.3 °C -13.3 °C 34256.2 hPa West 17.9 km/h 36.2 km/h 88 % 0 mm
21:57 -12.3 °C -13.4 °C 34256.2 hPa WSW 31.4 km/h 44.1 km/h 88 % 0 mm
22:03 -12.4 °C -13.3 °C 34256.2 hPa WSW 26.2 km/h 31.1 km/h 89 % 0 mm
22:09 -12.4 °C -13.3 °C 34256.2 hPa West 23 km/h 36.2 km/h 90 % 0 mm
22:15 -12.4 °C -13.3 °C 34256.2 hPa WSW 31.4 km/h 31.4 km/h 90 % 0 mm
22:21 -12.4 °C -13.4 °C 34256.2 hPa West 15.6 km/h 33.6 km/h 89 % 0 mm
22:27 -12.5 °C -13.4 °C 34256.2 hPa WSW 33.6 km/h 33.6 km/h 89 % 0 mm
22:33 -12.4 °C -13.4 °C 34269.7 hPa West 28.5 km/h 31.1 km/h 89 % 0 mm
22:39 -12.4 °C -13.4 °C 34269.7 hPa WSW 15.6 km/h 33.6 km/h 89 % 0 mm
22:45 -12.4 °C -13.4 °C 34269.7 hPa West 23 km/h 28.5 km/h 89 % 0 mm
22:51 -12.5 °C -13.4 °C 34269.7 hPa West 20.9 km/h 36.2 km/h 89 % 0 mm
22:57 -12.5 °C -13.6 °C 34269.7 hPa West 28.5 km/h 46.7 km/h 88 % 0 mm
23:03 -12.5 °C -13.6 °C 34269.7 hPa WSW 38.8 km/h 44.1 km/h 88 % 0 mm
23:09 -12.4 °C -13.6 °C 34269.7 hPa West 26.2 km/h 41.4 km/h 87 % 0 mm
23:15 -12.4 °C -13.7 °C 34279.9 hPa West 44.1 km/h 57 km/h 86 % 0 mm
23:21 -12.5 °C -13.8 °C 34279.9 hPa WNW 41.7 km/h 54.4 km/h 85 % 0 mm
23:27 -12.6 °C -13.9 °C 34279.9 hPa WNW 17.9 km/h 36.2 km/h 85 % 0 mm
23:33 -12.6 °C -13.9 °C 34279.9 hPa West 15.6 km/h 28.5 km/h 85 % 0 mm
23:39 -12.6 °C -13.8 °C 34279.9 hPa West 10.3 km/h 23.3 km/h 86 % 0 mm
23:45 -12.7 °C -13.9 °C 34279.9 hPa WSW 26.2 km/h 28.5 km/h 86 % 0 mm
23:51 -12.7 °C -13.9 °C 34293.4 hPa West 31.4 km/h 38.8 km/h 86 % 0 mm
23:57 -12.7 °C -13.9 °C 34293.4 hPa West 31.4 km/h 41.4 km/h 86 % 0 mm
Meteo18
Compliments of Weather Underground - 4 mb

Script developed by  Jim McMurry - jmcmurry@mwt.net Adapted for the template by  Wim van der Kuil - Leuven-Template.eu

You find our weather info also at:

European Weather Network

Weather Underground

Equipment we use:

Weather-station
Davis Vue

Weather-program
Meteobridge

Weather-server
Raspberry PI 2 B+

Provider
1 and 1

Davis Vue

Meteobridge

Raspberry PI 2 B+

1 and 1